,,PressureMeas_1m,,PRMeasQMR101_1,,RHStat155_1m_1,,SRMeasQMS101R_1m,,TAStat155_1m_1,,GenWind_1,,GenWind_1,
2018-11-11, 00:00:06,VALID,918.293,VALID,0.0,VALID,98.107,VALID,0.003,VALID,20.672,VALID,357.0,VALID,0.0,
2018-11-11, 00:01:06,VALID,918.269,VALID,0.0,VALID,98.106,VALID,0.002,VALID,20.671,VALID,17.0,VALID,0.0,
2018-11-11, 00:02:06,VALID,918.248,VALID,0.0,VALID,98.133,VALID,-0.003,VALID,20.672,VALID,13.0,VALID,0.0,
2018-11-11, 00:03:06,VALID,918.248,VALID,0.0,VALID,98.178,VALID,0.01,VALID,20.673,VALID,1.0,VALID,0.0,
2018-11-11, 00:04:06,VALID,918.235,VALID,0.0,VALID,98.143,VALID,-0.008,VALID,20.663,VALID,7.0,VALID,0.0,
2018-11-11, 00:05:06,VALID,918.21,VALID,0.0,VALID,98.177,VALID,-0.003,VALID,20.652,VALID,21.0,VALID,0.0,
2018-11-11, 00:06:06,VALID,918.203,VALID,0.0,VALID,98.218,VALID,0.01,VALID,20.668,VALID,356.0,VALID,0.0,
2018-11-11, 00:07:06,VALID,918.2,VALID,0.0,VALID,98.198,VALID,0.019,VALID,20.667,VALID,3.0,VALID,0.0,
2018-11-11, 00:08:06,VALID,918.179,VALID,0.0,VALID,98.223,VALID,0.029,VALID,20.663,VALID,12.0,VALID,0.0,
2018-11-11, 00:09:06,VALID,918.181,VALID,0.0,VALID,98.242,VALID,0.012,VALID,20.667,VALID,15.0,VALID,0.0,
2018-11-11, 00:10:06,VALID,918.18,VALID,0.0,VALID,98.285,VALID,0.021,VALID,20.691,VALID,17.0,VALID,0.0,
2018-11-11, 00:11:06,VALID,918.169,VALID,0.0,VALID,98.27,VALID,0.003,VALID,20.707,VALID,9.0,VALID,0.0,
2018-11-11, 00:12:06,VALID,918.163,VALID,0.0,VALID,98.285,VALID,0.004,VALID,20.746,VALID,9.0,VALID,0.0,
2018-11-11, 00:13:06,VALID,918.167,VALID,0.0,VALID,98.231,VALID,0.014,VALID,20.763,VALID,9.0,VALID,0.0,
2018-11-11, 00:14:06,VALID,918.151,VALID,0.0,VALID,98.179,VALID,0.013,VALID,20.776,VALID,9.0,VALID,0.0,
2018-11-11, 00:15:06,VALID,918.156,VALID,0.0,VALID,98.041,VALID,0.004,VALID,20.76,VALID,4.0,VALID,0.0,
2018-11-11, 00:16:06,VALID,918.161,VALID,0.0,VALID,97.987,VALID,0.019,VALID,20.737,VALID,315.0,VALID,0.0,
2018-11-11, 00:17:06,VALID,918.166,VALID,0.0,VALID,97.906,VALID,0.011,VALID,20.74,VALID,12.0,VALID,0.0,
2018-11-11, 00:18:06,VALID,918.159,VALID,0.0,VALID,97.872,VALID,0.009,VALID,20.759,VALID,16.0,VALID,0.0,
2018-11-11, 00:19:06,VALID,918.148,VALID,0.0,VALID,97.771,VALID,0.02,VALID,20.744,VALID,349.0,VALID,0.0,
2018-11-11, 00:20:06,VALID,918.13,VALID,0.0,VALID,97.763,VALID,0.016,VALID,20.736,VALID,7.0,VALID,0.0,
2018-11-11, 00:21:06,VALID,918.118,VALID,0.0,VALID,97.843,VALID,0.016,VALID,20.74,VALID,11.0,VALID,0.0,
2018-11-11, 00:22:06,VALID,918.117,VALID,0.0,VALID,97.84,VALID,0.028,VALID,20.729,VALID,351.0,VALID,0.0,
2018-11-11, 00:23:06,VALID,918.109,VALID,0.0,VALID,97.803,VALID,0.021,VALID,20.724,VALID,289.0,VALID,0.0,
2018-11-11, 00:24:06,VALID,918.112,VALID,0.0,VALID,97.864,VALID,0.008,VALID,20.74,VALID,266.0,VALID,0.0,
2018-11-11, 00:25:06,VALID,918.095,VALID,0.0,VALID,97.868,VALID,0.023,VALID,20.756,VALID,352.0,VALID,0.0,
2018-11-11, 00:26:06,VALID,918.094,VALID,0.0,VALID,97.748,VALID,0.027,VALID,20.719,VALID,308.0,VALID,0.0,
2018-11-11, 00:27:06,VALID,918.082,VALID,0.0,VALID,97.697,VALID,0.033,VALID,20.711,VALID,4.0,VALID,0.0,
2018-11-11, 00:28:06,VALID,918.074,VALID,0.0,VALID,97.622,VALID,0.011,VALID,20.701,VALID,5.0,VALID,0.0,
2018-11-11, 00:29:06,VALID,918.065,VALID,0.0,VALID,97.615,VALID,0.009,VALID,20.682,VALID,333.0,VALID,0.0,
2018-11-11, 00:30:06,VALID,918.068,VALID,0.0,VALID,97.696,VALID,0.009,VALID,20.674,VALID,2.0,VALID,0.0,
2018-11-11, 00:31:06,VALID,918.045,VALID,0.0,VALID,97.765,VALID,0.007,VALID,20.68,VALID,2.0,VALID,0.0,
2018-11-11, 00:32:06,VALID,918.034,VALID,0.0,VALID,97.825,VALID,0.019,VALID,20.696,VALID,359.0,VALID,0.0,
2018-11-11, 00:33:06,VALID,918.016,VALID,0.0,VALID,97.836,VALID,0.015,VALID,20.719,VALID,233.0,VALID,0.0,
2018-11-11, 00:34:06,VALID,918.003,VALID,0.0,VALID,97.831,VALID,0.018,VALID,20.722,VALID,211.0,VALID,0.0,
2018-11-11, 00:35:06,VALID,917.997,VALID,0.0,VALID,97.809,VALID,0.027,VALID,20.714,VALID,265.0,VALID,0.0,
2018-11-11, 00:36:06,VALID,917.987,VALID,0.0,VALID,97.853,VALID,0.028,VALID,20.728,VALID,265.0,VALID,0.0,
2018-11-11, 00:37:06,VALID,917.987,VALID,0.0,VALID,97.835,VALID,0.012,VALID,20.739,VALID,276.0,VALID,0.0,
2018-11-11, 00:38:06,VALID,917.985,VALID,0.0,VALID,97.772,VALID,0.017,VALID,20.721,VALID,278.0,VALID,0.0,
2018-11-11, 00:39:06,VALID,917.983,VALID,0.0,VALID,97.778,VALID,0.015,VALID,20.726,VALID,245.0,VALID,0.0,
2018-11-11, 00:40:06,VALID,917.966,VALID,0.0,VALID,97.768,VALID,-0.001,VALID,20.729,VALID,291.0,VALID,0.0,
2018-11-11, 00:41:06,VALID,917.945,VALID,0.0,VALID,97.796,VALID,-0.021,VALID,20.73,VALID,4.0,VALID,0.0,
2018-11-11, 00:42:06,VALID,917.92,VALID,0.0,VALID,97.898,VALID,-0.026,VALID,20.751,VALID,352.0,VALID,0.0,
2018-11-11, 00:43:06,VALID,917.894,VALID,0.0,VALID,97.815,VALID,-0.012,VALID,20.732,VALID,358.0,VALID,0.0,
2018-11-11, 00:44:06,VALID,917.855,VALID,0.0,VALID,97.865,VALID,-0.018,VALID,20.741,VALID,292.0,VALID,0.0,
2018-11-11, 00:45:06,VALID,917.838,VALID,0.0,VALID,97.803,VALID,-0.017,VALID,20.718,VALID,349.0,VALID,0.0,
2018-11-11, 00:46:06,VALID,917.827,VALID,0.0,VALID,97.734,VALID,-0.014,VALID,20.692,VALID,346.0,VALID,0.0,
2018-11-11, 00:47:06,VALID,917.798,VALID,0.0,VALID,97.758,VALID,-0.01,VALID,20.691,VALID,344.0,VALID,0.0,
2018-11-11, 00:48:06,VALID,917.805,VALID,0.0,VALID,97.754,VALID,-0.005,VALID,20.689,VALID,344.0,VALID,0.0,
2018-11-11, 00:49:06,VALID,917.794,VALID,0.0,VALID,97.757,VALID,-0.009,VALID,20.693,VALID,347.0,VALID,0.0,
2018-11-11, 00:50:06,VALID,917.784,VALID,0.0,VALID,97.695,VALID,0.004,VALID,20.686,VALID,353.0,VALID,0.0,
2018-11-11, 00:51:06,VALID,917.774,VALID,0.0,VALID,97.688,VALID,-0.016,VALID,20.69,VALID,353.0,VALID,0.0,
2018-11-11, 00:52:06,VALID,917.743,VALID,0.0,VALID,97.733,VALID,-0.024,VALID,20.716,VALID,347.0,VALID,0.0,
2018-11-11, 00:53:06,VALID,917.741,VALID,0.0,VALID,97.69,VALID,-0.006,VALID,20.721,VALID,297.0,VALID,0.0,
2018-11-11, 00:54:06,VALID,917.735,VALID,0.0,VALID,97.615,VALID,-0.012,VALID,20.712,VALID,322.0,VALID,0.0,
2018-11-11, 00:55:06,VALID,917.746,VALID,0.0,VALID,97.491,VALID,0.028,VALID,20.694,VALID,293.0,VALID,0.0,
2018-11-11, 00:56:06,VALID,917.725,VALID,0.0,VALID,97.428,VALID,0.029,VALID,20.712,VALID,314.0,VALID,0.0,
2018-11-11, 00:57:06,VALID,917.706,VALID,0.0,VALID,97.346,VALID,0.012,VALID,20.723,VALID,336.0,VALID,0.0,
2018-11-11, 00:58:06,VALID,917.699,VALID,0.0,VALID,97.394,VALID,0.012,VALID,20.758,VALID,348.0,VALID,0.0,
2018-11-11, 00:59:06,VALID,917.688,VALID,0.0,VALID,97.223,VALID,0.02,VALID,20.743,VALID,357.0,VALID,0.0,
2018-11-11, 01:00:06,VALID,917.686,VALID,0.0,VALID,97.222,VALID,0.026,VALID,20.732,VALID,355.0,VALID,0.0,
2018-11-11, 01:01:06,VALID,917.692,VALID,0.0,VALID,97.235,VALID,0.016,VALID,20.719,VALID,4.0,VALID,0.0,
2018-11-11, 01:02:06,VALID,917.681,VALID,0.0,VALID,97.371,VALID,0.028,VALID,20.716,VALID,4.0,VALID,0.0,
2018-11-11, 01:03:06,VALID,917.7,VALID,0.0,VALID,97.382,VALID,0.01,VALID,20.678,VALID,356.0,VALID,0.0,
2018-11-11, 01:04:06,VALID,917.718,VALID,0.0,VALID,97.477,VALID,0.014,VALID,20.663,VALID,357.0,VALID,0.0,
2018-11-11, 01:05:06,VALID,917.733,VALID,0.0,VALID,97.545,VALID,0.027,VALID,20.649,VALID,2.0,VALID,0.0,
2018-11-11, 01:06:06,VALID,917.733,VALID,0.0,VALID,97.624,VALID,0.005,VALID,20.656,VALID,350.0,VALID,0.0,
2018-11-11, 01:07:06,VALID,917.738,VALID,0.0,VALID,97.62,VALID,0.024,VALID,20.655,VALID,3.0,VALID,0.0,
2018-11-11, 01:08:06,VALID,917.732,VALID,0.0,VALID,97.618,VALID,0.018,VALID,20.647,VALID,360.0,VALID,0.0,
2018-11-11, 01:09:06,VALID,917.73,VALID,0.0,VALID,97.6,VALID,0.004,VALID,20.618,VALID,349.0,VALID,0.0,
2018-11-11, 01:10:06,VALID,917.72,VALID,0.0,VALID,97.654,VALID,0.018,VALID,20.6,VALID,335.0,VALID,0.0,
2018-11-11, 01:11:06,VALID,917.735,VALID,0.0,VALID,97.753,VALID,0.03,VALID,20.602,VALID,330.0,VALID,0.0,
2018-11-11, 01:12:06,VALID,917.729,VALID,0.0,VALID,97.852,VALID,0.015,VALID,20.623,VALID,3.0,VALID,0.0,
2018-11-11, 01:13:06,VALID,917.718,VALID,0.0,VALID,97.803,VALID,0.027,VALID,20.607,VALID,340.0,VALID,0.0,
2018-11-11, 01:14:06,VALID,917.725,VALID,0.0,VALID,97.83,VALID,0.014,VALID,20.592,VALID,6.0,VALID,0.0,
2018-11-11, 01:15:06,VALID,917.741,VALID,0.0,VALID,97.881,VALID,0.021,VALID,20.59,VALID,349.0,VALID,0.0,
2018-11-11, 01:16:06,VALID,917.739,VALID,0.0,VALID,97.963,VALID,0.029,VALID,20.614,VALID,346.0,VALID,0.0,
2018-11-11, 01:17:06,VALID,917.739,VALID,0.0,VALID,97.912,VALID,0.02,VALID,20.604,VALID,348.0,VALID,0.0,
2018-11-11, 01:18:06,VALID,917.73,VALID,0.0,VALID,97.912,VALID,0.016,VALID,20.602,VALID,350.0,VALID,0.0,
2018-11-11, 01:19:06,VALID,917.719,VALID,0.0,VALID,97.92,VALID,0.005,VALID,20.582,VALID,1.0,VALID,0.0,
2018-11-11, 01:20:06,VALID,917.727,VALID,0.0,VALID,98.052,VALID,0.03,VALID,20.585,VALID,354.0,VALID,0.0,
2018-11-11, 01:21:06,VALID,917.735,VALID,0.0,VALID,98.041,VALID,0.022,VALID,20.555,VALID,355.0,VALID,0.0,
2018-11-11, 01:22:06,VALID,917.743,VALID,0.0,VALID,98.109,VALID,0.032,VALID,20.559,VALID,350.0,VALID,0.0,
2018-11-11, 01:23:06,VALID,917.73,VALID,0.0,VALID,98.118,VALID,0.024,VALID,20.54,VALID,349.0,VALID,0.0,
2018-11-11, 01:24:06,VALID,917.747,VALID,0.0,VALID,98.192,VALID,-0.004,VALID,20.542,VALID,344.0,VALID,0.0,
2018-11-11, 01:25:06,VALID,917.697,VALID,0.0,VALID,98.148,VALID,-0.013,VALID,20.521,VALID,336.0,VALID,0.0,
2018-11-11, 01:26:06,VALID,917.692,VALID,0.0,VALID,98.211,VALID,-0.012,VALID,20.514,VALID,333.0,VALID,0.0,
2018-11-11, 01:27:06,VALID,917.683,VALID,0.0,VALID,98.213,VALID,-0.006,VALID,20.501,VALID,322.0,VALID,0.0,
2018-11-11, 01:28:06,VALID,917.654,VALID,0.0,VALID,98.256,VALID,-0.002,VALID,20.505,VALID,333.0,VALID,0.0,
2018-11-11, 01:29:06,VALID,917.659,VALID,0.0,VALID,98.215,VALID,-0.012,VALID,20.485,VALID,1.0,VALID,0.0,
2018-11-11, 01:30:06,VALID,917.634,VALID,0.0,VALID,98.228,VALID,0.004,VALID,20.483,VALID,349.0,VALID,0.0,
2018-11-11, 01:31:06,VALID,917.623,VALID,0.0,VALID,98.243,VALID,-0.007,VALID,20.478,VALID,352.0,VALID,0.0,
2018-11-11, 01:32:06,VALID,917.624,VALID,0.0,VALID,98.214,VALID,-0.02,VALID,20.454,VALID,338.0,VALID,0.0,
2018-11-11, 01:33:06,VALID,917.618,VALID,0.0,VALID,98.193,VALID,-0.009,VALID,20.44,VALID,345.0,VALID,0.0,
2018-11-11, 01:34:06,VALID,917.617,VALID,0.0,VALID,98.238,VALID,0.006,VALID,20.444,VALID,335.0,VALID,0.0,
2018-11-11, 01:35:06,VALID,917.603,VALID,0.0,VALID,98.23,VALID,-0.002,VALID,20.447,VALID,344.0,VALID,0.0,
2018-11-11, 01:36:06,VALID,917.551,VALID,0.0,VALID,98.225,VALID,0.001,VALID,20.448,VALID,340.0,VALID,0.0,
2018-11-11, 01:37:06,VALID,917.532,VALID,0.0,VALID,98.176,VALID,0.011,VALID,20.427,VALID,354.0,VALID,0.0,
2018-11-11, 01:38:06,VALID,917.484,VALID,0.0,VALID,98.14,VALID,-0.008,VALID,20.411,VALID,353.0,VALID,0.0,
2018-11-11, 01:39:06,VALID,917.468,VALID,0.0,VALID,98.12,VALID,-0.018,VALID,20.384,VALID,360.0,VALID,0.0,
2018-11-11, 01:40:06,VALID,917.439,VALID,0.0,VALID,98.178,VALID,-0.002,VALID,20.386,VALID,23.0,VALID,0.0,
2018-11-11, 01:41:06,VALID,917.417,VALID,0.0,VALID,98.176,VALID,0.008,VALID,20.383,VALID,346.0,VALID,0.0,
2018-11-11, 01:42:06,VALID,917.389,VALID,0.0,VALID,98.188,VALID,-0.002,VALID,20.376,VALID,343.0,VALID,0.0,
2018-11-11, 01:43:06,VALID,917.348,VALID,0.0,VALID,98.184,VALID,0.009,VALID,20.367,VALID,340.0,VALID,0.0,
2018-11-11, 01:44:06,VALID,917.317,VALID,0.0,VALID,98.176,VALID,0.01,VALID,20.367,VALID,283.0,VALID,0.0,
2018-11-11, 01:45:06,VALID,917.283,VALID,0.0,VALID,98.185,VALID,0.001,VALID,20.387,VALID,243.0,VALID,0.0,
2018-11-11, 01:46:06,VALID,917.257,VALID,0.0,VALID,98.163,VALID,0.011,VALID,20.393,VALID,243.0,VALID,0.0,
2018-11-11, 01:47:06,VALID,917.233,VALID,0.0,VALID,98.152,VALID,0.008,VALID,20.412,VALID,277.0,VALID,0.0,
2018-11-11, 01:48:06,VALID,917.216,VALID,0.0,VALID,98.061,VALID,0.0,VALID,20.403,VALID,314.0,VALID,0.0,
2018-11-11, 01:49:06,VALID,917.227,VALID,0.0,VALID,97.985,VALID,0.001,VALID,20.385,VALID,315.0,VALID,0.0,
2018-11-11, 01:50:06,VALID,917.221,VALID,0.0,VALID,97.931,VALID,0.013,VALID,20.379,VALID,316.0,VALID,0.0,
2018-11-11, 01:51:06,VALID,917.221,VALID,0.0,VALID,97.967,VALID,0.026,VALID,20.391,VALID,316.0,VALID,0.0,
2018-11-11, 01:52:06,VALID,917.204,VALID,0.0,VALID,97.901,VALID,0.026,VALID,20.387,VALID,316.0,VALID,0.0,
2018-11-11, 01:53:06,VALID,917.204,VALID,0.0,VALID,97.874,VALID,0.029,VALID,20.373,VALID,316.0,VALID,0.0,
2018-11-11, 01:54:06,VALID,917.202,VALID,0.0,VALID,97.874,VALID,0.012,VALID,20.35,VALID,316.0,VALID,0.0,
2018-11-11, 01:55:06,VALID,917.2,VALID,0.0,VALID,97.9,VALID,0.013,VALID,20.337,VALID,316.0,VALID,0.0,
2018-11-11, 01:56:06,VALID,917.183,VALID,0.0,VALID,97.948,VALID,0.028,VALID,20.342,VALID,316.0,VALID,0.0,
2018-11-11, 01:57:06,VALID,917.149,VALID,0.0,VALID,97.907,VALID,0.029,VALID,20.334,VALID,316.0,VALID,0.0,
2018-11-11, 01:58:06,VALID,917.149,VALID,0.0,VALID,97.979,VALID,0.023,VALID,20.36,VALID,316.0,VALID,0.0,
2018-11-11, 01:59:06,VALID,917.114,VALID,0.0,VALID,98.029,VALID,0.019,VALID,20.375,VALID,316.0,VALID,0.0,
2018-11-11, 02:00:06,VALID,917.114,VALID,0.0,VALID,98.006,VALID,0.033,VALID,20.367,VALID,316.0,VALID,0.0,
2018-11-11, 02:01:06,VALID,917.092,VALID,0.0,VALID,97.995,VALID,0.023,VALID,20.355,VALID,316.0,VALID,0.0,
2018-11-11, 02:02:06,VALID,917.07,VALID,0.0,VALID,98.034,VALID,0.029,VALID,20.342,VALID,316.0,VALID,0.0,
2018-11-11, 02:03:06,VALID,917.041,VALID,0.0,VALID,97.894,VALID,0.034,VALID,20.286,VALID,316.0,VALID,0.0,
2018-11-11, 02:04:06,VALID,917.034,VALID,0.0,VALID,97.8,VALID,0.012,VALID,20.237,VALID,140.0,VALID,0.0,
2018-11-11, 02:05:06,VALID,916.996,VALID,0.0,VALID,97.794,VALID,0.027,VALID,20.222,VALID,131.0,VALID,0.0,
2018-11-11, 02:06:06,VALID,916.974,VALID,0.0,VALID,97.861,VALID,0.029,VALID,20.22,VALID,131.0,VALID,0.0,
2018-11-11, 02:07:06,VALID,916.966,VALID,0.0,VALID,97.941,VALID,0.04,VALID,20.202,VALID,131.0,VALID,0.0,
2018-11-11, 02:08:06,VALID,916.932,VALID,0.0,VALID,98.091,VALID,0.031,VALID,20.219,VALID,131.0,VALID,0.0,
2018-11-11, 02:09:06,VALID,916.922,VALID,0.0,VALID,98.24,VALID,0.016,VALID,20.223,VALID,131.0,VALID,0.0,
2018-11-11, 02:10:06,VALID,916.894,VALID,0.0,VALID,98.285,VALID,0.016,VALID,20.213,VALID,131.0,VALID,0.0,
2018-11-11, 02:11:06,VALID,916.866,VALID,0.0,VALID,98.353,VALID,-0.004,VALID,20.213,VALID,131.0,VALID,0.0,
2018-11-11, 02:12:06,VALID,916.865,VALID,0.0,VALID,98.384,VALID,0.016,VALID,20.217,VALID,131.0,VALID,0.0,
2018-11-11, 02:13:06,VALID,916.853,VALID,0.0,VALID,98.379,VALID,0.014,VALID,20.19,VALID,131.0,VALID,0.0,
2018-11-11, 02:14:06,VALID,916.866,VALID,0.0,VALID,98.398,VALID,0.016,VALID,20.186,VALID,131.0,VALID,0.0,
2018-11-11, 02:15:06,VALID,916.851,VALID,0.0,VALID,98.393,VALID,0.003,VALID,20.166,VALID,138.0,VALID,0.0,
2018-11-11, 02:16:06,VALID,916.832,VALID,0.0,VALID,98.341,VALID,0.016,VALID,20.134,VALID,132.0,VALID,0.0,
2018-11-11, 02:17:06,VALID,916.816,VALID,0.0,VALID,98.285,VALID,0.021,VALID,20.109,VALID,126.0,VALID,0.0,
2018-11-11, 02:18:06,VALID,916.793,VALID,0.0,VALID,98.197,VALID,0.027,VALID,20.069,VALID,126.0,VALID,0.0,
2018-11-11, 02:19:06,VALID,916.787,VALID,0.0,VALID,98.127,VALID,0.008,VALID,20.036,VALID,126.0,VALID,0.0,
2018-11-11, 02:20:06,VALID,916.78,VALID,0.0,VALID,98.123,VALID,0.011,VALID,20.042,VALID,96.0,VALID,0.0,
2018-11-11, 02:21:06,VALID,916.769,VALID,0.0,VALID,98.078,VALID,0.018,VALID,20.032,VALID,82.0,VALID,0.0,
2018-11-11, 02:22:06,VALID,916.755,VALID,0.0,VALID,98.142,VALID,0.044,VALID,20.044,VALID,82.0,VALID,0.0,
2018-11-11, 02:23:06,VALID,916.731,VALID,0.0,VALID,98.168,VALID,0.017,VALID,20.063,VALID,85.0,VALID,0.0,
2018-11-11, 02:24:06,VALID,916.713,VALID,0.0,VALID,98.21,VALID,0.007,VALID,20.082,VALID,81.0,VALID,0.0,
2018-11-11, 02:25:06,VALID,916.715,VALID,0.0,VALID,98.213,VALID,-0.02,VALID,20.081,VALID,91.0,VALID,0.0,
2018-11-11, 02:26:06,VALID,916.679,VALID,0.0,VALID,98.255,VALID,-0.002,VALID,20.076,VALID,98.0,VALID,0.0,
2018-11-11, 02:27:07,VALID,916.66,VALID,0.0,VALID,98.309,VALID,-0.031,VALID,20.087,VALID,100.0,VALID,0.0,
2018-11-11, 02:28:07,VALID,916.658,VALID,0.0,VALID,98.348,VALID,-0.017,VALID,20.095,VALID,89.0,VALID,0.0,
2018-11-11, 02:29:07,VALID,916.633,VALID,0.0,VALID,98.382,VALID,-0.024,VALID,20.096,VALID,89.0,VALID,0.0,
2018-11-11, 02:30:07,VALID,916.64,VALID,0.0,VALID,98.404,VALID,-0.03,VALID,20.095,VALID,89.0,VALID,0.0,
2018-11-11, 02:31:07,VALID,916.636,VALID,0.0,VALID,98.376,VALID,-0.006,VALID,20.074,VALID,96.0,VALID,0.0,
2018-11-11, 02:32:07,VALID,916.642,VALID,0.0,VALID,98.397,VALID,-0.012,VALID,20.063,VALID,121.0,VALID,0.0,
2018-11-11, 02:33:07,VALID,916.654,VALID,0.0,VALID,98.442,VALID,-0.023,VALID,20.08,VALID,113.0,VALID,0.0,
2018-11-11, 02:34:07,VALID,916.674,VALID,0.0,VALID,98.472,VALID,-0.026,VALID,20.103,VALID,111.0,VALID,0.0,
2018-11-11, 02:35:07,VALID,916.669,VALID,0.0,VALID,98.503,VALID,-0.01,VALID,20.116,VALID,112.0,VALID,0.0,
2018-11-11, 02:36:07,VALID,916.683,VALID,0.0,VALID,98.551,VALID,-0.012,VALID,20.133,VALID,112.0,VALID,0.0,
2018-11-11, 02:37:07,VALID,916.703,VALID,0.0,VALID,98.576,VALID,-0.032,VALID,20.146,VALID,112.0,VALID,0.0,
2018-11-11, 02:38:07,VALID,916.706,VALID,0.0,VALID,98.571,VALID,-0.019,VALID,20.149,VALID,112.0,VALID,0.0,
2018-11-11, 02:39:07,VALID,916.705,VALID,0.0,VALID,98.574,VALID,-0.012,VALID,20.149,VALID,112.0,VALID,0.0,
2018-11-11, 02:40:07,VALID,916.713,VALID,0.0,VALID,98.578,VALID,-0.016,VALID,20.155,VALID,112.0,VALID,0.0,
2018-11-11, 02:41:07,VALID,916.738,VALID,0.0,VALID,98.582,VALID,-0.018,VALID,20.178,VALID,118.0,VALID,0.0,
2018-11-11, 02:42:07,VALID,916.743,VALID,0.0,VALID,98.555,VALID,0.005,VALID,20.164,VALID,233.0,VALID,0.0,
2018-11-11, 02:43:07,VALID,916.738,VALID,0.0,VALID,98.532,VALID,0.002,VALID,20.152,VALID,236.0,VALID,0.0,
2018-11-11, 02:44:07,VALID,916.766,VALID,0.0,VALID,98.505,VALID,-0.003,VALID,20.159,VALID,240.0,VALID,0.0,
2018-11-11, 02:45:07,VALID,916.765,VALID,0.0,VALID,98.497,VALID,0.004,VALID,20.167,VALID,240.0,VALID,0.0,
2018-11-11, 02:46:07,VALID,916.776,VALID,0.0,VALID,98.479,VALID,0.006,VALID,20.159,VALID,240.0,VALID,0.0,
2018-11-11, 02:47:07,VALID,916.774,VALID,0.0,VALID,98.431,VALID,-0.006,VALID,20.162,VALID,243.0,VALID,0.0,
2018-11-11, 02:48:07,VALID,916.788,VALID,0.0,VALID,98.437,VALID,-0.008,VALID,20.162,VALID,243.0,VALID,0.0,
2018-11-11, 02:49:07,VALID,916.79,VALID,0.0,VALID,98.419,VALID,0.0,VALID,20.164,VALID,243.0,VALID,0.0,
2018-11-11, 02:50:07,VALID,916.791,VALID,0.0,VALID,98.436,VALID,0.001,VALID,20.165,VALID,243.0,VALID,0.0,
2018-11-11, 02:51:07,VALID,916.786,VALID,0.0,VALID,98.417,VALID,-0.01,VALID,20.173,VALID,243.0,VALID,0.0,
2018-11-11, 02:52:07,VALID,916.783,VALID,0.0,VALID,98.435,VALID,-0.017,VALID,20.195,VALID,243.0,VALID,0.0,
2018-11-11, 02:53:07,VALID,916.797,VALID,0.0,VALID,98.398,VALID,-0.008,VALID,20.21,VALID,229.0,VALID,0.0,
2018-11-11, 02:54:07,VALID,916.779,VALID,0.0,VALID,98.344,VALID,-0.007,VALID,20.228,VALID,219.0,VALID,0.0,
2018-11-11, 02:55:07,VALID,916.8,VALID,0.0,VALID,98.226,VALID,-0.001,VALID,20.241,VALID,219.0,VALID,0.0,
2018-11-11, 02:56:07,VALID,916.792,VALID,0.0,VALID,98.072,VALID,0.003,VALID,20.238,VALID,219.0,VALID,0.0,
2018-11-11, 02:57:07,VALID,916.804,VALID,0.0,VALID,97.962,VALID,-0.029,VALID,20.231,VALID,219.0,VALID,0.0,
2018-11-11, 02:58:07,VALID,916.821,VALID,0.0,VALID,97.881,VALID,-0.019,VALID,20.228,VALID,207.0,VALID,0.0,
2018-11-11, 02:59:07,VALID,916.822,VALID,0.0,VALID,97.716,VALID,0.005,VALID,20.22,VALID,194.0,VALID,0.0,
2018-11-11, 03:00:07,VALID,916.833,VALID,0.0,VALID,97.559,VALID,0.012,VALID,20.232,VALID,186.0,VALID,0.0,
2018-11-11, 03:01:07,VALID,916.837,VALID,0.0,VALID,97.448,VALID,-0.013,VALID,20.251,VALID,193.0,VALID,0.0,
2018-11-11, 03:02:07,VALID,916.838,VALID,0.0,VALID,97.361,VALID,-0.016,VALID,20.282,VALID,197.0,VALID,0.0,
2018-11-11, 03:03:07,VALID,916.842,VALID,0.0,VALID,97.225,VALID,-0.007,VALID,20.317,VALID,183.0,VALID,0.0,
2018-11-11, 03:04:07,VALID,916.855,VALID,0.0,VALID,97.138,VALID,-0.005,VALID,20.367,VALID,189.0,VALID,0.0,
2018-11-11, 03:05:07,VALID,916.84,VALID,0.0,VALID,97.07,VALID,0.003,VALID,20.41,VALID,193.0,VALID,0.0,
2018-11-11, 03:06:07,VALID,916.851,VALID,0.0,VALID,96.935,VALID,-0.018,VALID,20.445,VALID,188.0,VALID,0.0,
2018-11-11, 03:07:07,VALID,916.855,VALID,0.0,VALID,96.723,VALID,-0.016,VALID,20.48,VALID,180.0,VALID,0.0,
2018-11-11, 03:08:07,VALID,916.832,VALID,0.0,VALID,96.583,VALID,0.01,VALID,20.518,VALID,180.0,VALID,0.0,
2018-11-11, 03:09:07,VALID,916.835,VALID,0.0,VALID,96.47,VALID,-0.007,VALID,20.542,VALID,180.0,VALID,0.0,
2018-11-11, 03:10:07,VALID,916.814,VALID,0.0,VALID,96.386,VALID,-0.03,VALID,20.563,VALID,180.0,VALID,0.0,
2018-11-11, 03:11:07,VALID,916.81,VALID,0.0,VALID,96.271,VALID,-0.022,VALID,20.586,VALID,180.0,VALID,0.0,
2018-11-11, 03:12:07,VALID,916.817,VALID,0.0,VALID,96.111,VALID,-0.04,VALID,20.593,VALID,180.0,VALID,0.0,
2018-11-11, 03:13:07,VALID,916.811,VALID,0.0,VALID,96.012,VALID,-0.029,VALID,20.604,VALID,173.0,VALID,0.0,
2018-11-11, 03:14:07,VALID,916.812,VALID,0.0,VALID,95.794,VALID,-0.038,VALID,20.57,VALID,118.0,VALID,0.0,
2018-11-11, 03:15:07,VALID,916.808,VALID,0.0,VALID,95.799,VALID,-0.034,VALID,20.533,VALID,101.0,VALID,0.0,
2018-11-11, 03:16:07,VALID,916.821,VALID,0.0,VALID,96.0,VALID,-0.02,VALID,20.499,VALID,106.0,VALID,0.0,
2018-11-11, 03:17:07,VALID,916.822,VALID,0.0,VALID,96.372,VALID,-0.026,VALID,20.476,VALID,111.0,VALID,0.0,
2018-11-11, 03:18:07,VALID,916.822,VALID,0.0,VALID,96.732,VALID,-0.029,VALID,20.44,VALID,100.0,VALID,0.0,
2018-11-11, 03:19:07,VALID,916.832,VALID,0.0,VALID,97.056,VALID,-0.03,VALID,20.388,VALID,95.0,VALID,0.0,
2018-11-11, 03:20:07,VALID,916.821,VALID,0.0,VALID,97.341,VALID,-0.022,VALID,20.341,VALID,97.0,VALID,0.0,
2018-11-11, 03:21:07,VALID,916.807,VALID,0.0,VALID,97.589,VALID,-0.012,VALID,20.308,VALID,96.0,VALID,0.0,
2018-11-11, 03:22:07,VALID,916.765,VALID,0.0,VALID,97.716,VALID,-0.023,VALID,20.265,VALID,94.0,VALID,0.0,
2018-11-11, 03:23:07,VALID,916.766,VALID,0.0,VALID,97.791,VALID,-0.03,VALID,20.239,VALID,94.0,VALID,0.0,
2018-11-11, 03:24:07,VALID,916.747,VALID,0.0,VALID,97.882,VALID,-0.001,VALID,20.219,VALID,92.0,VALID,0.0,
2018-11-11, 03:25:07,VALID,916.724,VALID,0.0,VALID,98.015,VALID,-0.002,VALID,20.208,VALID,92.0,VALID,0.0,
2018-11-11, 03:26:07,VALID,916.716,VALID,0.0,VALID,98.122,VALID,0.01,VALID,20.193,VALID,92.0,VALID,0.0,
2018-11-11, 03:27:07,VALID,916.707,VALID,0.0,VALID,98.206,VALID,0.002,VALID,20.197,VALID,86.0,VALID,0.0,
2018-11-11, 03:28:07,VALID,916.688,VALID,0.0,VALID,98.266,VALID,0.006,VALID,20.192,VALID,96.0,VALID,0.0,
2018-11-11, 03:29:07,VALID,916.665,VALID,0.0,VALID,98.33,VALID,0.01,VALID,20.188,VALID,107.0,VALID,0.0,
2018-11-11, 03:30:07,VALID,916.662,VALID,0.0,VALID,98.368,VALID,0.001,VALID,20.182,VALID,109.0,VALID,0.0,
2018-11-11, 03:31:07,VALID,916.642,VALID,0.0,VALID,98.414,VALID,0.008,VALID,20.195,VALID,113.0,VALID,0.0,
2018-11-11, 03:32:07,VALID,916.609,VALID,0.0,VALID,98.405,VALID,0.022,VALID,20.187,VALID,113.0,VALID,0.0,
2018-11-11, 03:33:07,VALID,916.604,VALID,0.0,VALID,98.445,VALID,0.005,VALID,20.185,VALID,113.0,VALID,0.0,
2018-11-11, 03:34:07,VALID,916.581,VALID,0.0,VALID,98.444,VALID,0.009,VALID,20.181,VALID,113.0,VALID,0.0,
2018-11-11, 03:35:07,VALID,916.578,VALID,0.0,VALID,98.454,VALID,0.008,VALID,20.181,VALID,113.0,VALID,0.0,
2018-11-11, 03:36:07,VALID,916.562,VALID,0.0,VALID,98.462,VALID,0.016,VALID,20.181,VALID,113.0,VALID,0.0,
2018-11-11, 03:37:07,VALID,916.549,VALID,0.0,VALID,98.465,VALID,0.018,VALID,20.181,VALID,113.0,VALID,0.0,
2018-11-11, 03:38:07,VALID,916.524,VALID,0.0,VALID,98.485,VALID,0.007,VALID,20.174,VALID,113.0,VALID,0.0,
2018-11-11, 03:39:07,VALID,916.518,VALID,0.0,VALID,98.475,VALID,0.007,VALID,20.179,VALID,113.0,VALID,0.0,
2018-11-11, 03:40:07,VALID,916.494,VALID,0.0,VALID,98.469,VALID,0.007,VALID,20.186,VALID,113.0,VALID,0.0,
2018-11-11, 03:41:07,VALID,916.491,VALID,0.0,VALID,98.471,VALID,0.004,VALID,20.195,VALID,113.0,VALID,0.0,
2018-11-11, 03:42:07,VALID,916.475,VALID,0.0,VALID,98.44,VALID,0.011,VALID,20.189,VALID,113.0,VALID,0.0,
2018-11-11, 03:43:07,VALID,916.451,VALID,0.0,VALID,98.445,VALID,0.007,VALID,20.176,VALID,113.0,VALID,0.0,